Location: Oshawa
(43.9000°N, 78.8670°W)
Time: 14:15:45
(UTC-04:00)

Thor Agena Rocket - Visible Passes

Search period start: 23 July 2014 00:00
Search period end: 02 August 2014 00:00
Orbit: 761 x 810 km, 99.0° (Epoch: 23 July)

Date Brightness Start Highest point End Pass type
(mag) Time Alt. Az. Time Alt. Az. Time Alt. Az.
23 Jul 3.7 01:59:25 55° ESE 02:00:12 64° ENE 02:05:13 10° N visible
23 Jul 5.2 03:40:02 16° W 03:40:02 16° W 03:43:06 10° NW visible
24 Jul 4.7 01:28:12 30° E 01:29:30 34° ENE 01:34:03 10° N visible
24 Jul 4.4 03:08:50 31° W 03:08:50 31° W 03:13:19 10° NW visible
25 Jul 5.5 00:57:00 16° E 00:58:56 19° ENE 01:02:28 10° NNE visible
25 Jul 3.5 02:37:37 59° WSW 02:37:48 60° WSW 02:42:51 10° NNW visible
26 Jul 6.1 00:27:30 10° ENE 00:28:32 11° NE 00:29:34 10° NE visible
26 Jul 3.5 02:06:25 66° ESE 02:06:56 73° ENE 02:12:01 10° N visible
26 Jul 5.4 03:47:03 14° W 03:47:03 14° W 03:49:28 10° WNW visible
27 Jul 4.5 01:35:13 35° E 01:36:12 38° ENE 01:40:54 10° N visible
27 Jul 4.6 03:15:51 27° W 03:15:51 27° W 03:19:56 10° NW visible
28 Jul 5.3 01:04:01 19° E 01:05:37 22° ENE 01:09:25 10° NNE visible
28 Jul 3.7 02:44:39 52° W 02:44:39 52° W 02:49:34 10° NNW visible
29 Jul 6.0 00:33:17 10° ENE 00:35:11 12° NE 00:37:06 10° NNE visible
29 Jul 3.4 02:13:26 79° ESE 02:13:41 82° ENE 02:18:48 10° NNW visible
29 Jul 5.5 03:54:04 12° W 03:54:04 12° W 03:55:42 10° WNW visible
30 Jul 4.3 01:42:15 41° E 01:42:55 43° ENE 01:47:45 10° N visible
30 Jul 4.8 03:22:52 24° W 03:22:52 24° W 03:26:33 10° NW visible
31 Jul 5.2 01:11:03 22° E 01:12:19 24° ENE 01:16:21 10° N visible
31 Jul 4.0 02:51:40 45° W 02:51:40 45° W 02:56:17 10° NNW visible
01 Aug 5.9 00:39:51 11° E 00:41:51 14° ENE 00:44:19 10° NNE visible
01 Aug 3.4 02:20:28 87° WNW 02:20:28 87° WNW 02:25:35 10° NNW visible
01 Aug 5.7 04:01:06 10° W 04:01:06 10° W 04:01:34 10° WNW visible
